Location: Newark
(34.0131°N, 4.3314°W)
Time: 20:45:04
(UTC+00:00)

Courier 1B - Pass Details

Date: 27 October 2019
Orbit: 963 x 1209 km, 28.3° (Epoch: 17 November)

Event Time Altitude Azimuth Distance (km) Brightness Sun altitude
Rises 19:06:01 0° 270° (W) 4,070 12.3 -20.5°
Reaches altitude 10° 19:08:59 10° 264° (W) 3,124 11.3 -21.1°
Maximum altitude 19:16:18 44° 195° (SSW) 1,605 8.7 -22.6°
Enters shadow 19:20:24 25° 140° (SE) 2,204 9.0 -23.5°
